FW1494 Weather Reports


time (UTC)temp
C
wind
direction
speed
KPH
gust
KPH
rain 1hr
cm
rain 24hr
cm
rain mn
cm
humidity
%
barometer
mb
20260503204425 13 284 3.2 6.4 0.00 0.00 0.00 96 1035.0
20260503204414 13 284 3.2 6.4 0.00 0.00 0.00 96 1034.9
20260503203402 13 284 4.8 6.4 0.00 0.00 0.00 96 1034.9
20260503202857 13 284 4.8 6.4 0.00 0.00 0.00 96 1034.9
20260503202352 13 284 4.8 6.4 0.00 0.00 0.00 96 1034.9
20260503202127 13 284 3.2 6.4 0.00 0.00 0.00 96 1034.9
20260503201347 13 284 4.8 6.4 0.00 0.00 0.00 97 1034.9
20260503200843 13 284 3.2 6.4 0.00 0.00 0.00 97 1034.9
20260503200343 13 284 3.2 6.4 0.00 0.00 0.00 96 1034.8
20260503195842 13 284 1.6 4.8 0.00 0.00 0.00 96 1034.8
20260503195338 13 284 3.2 4.8 0.00 0.00 0.00 97 1034.8
20260503194833 13 284 1.6 3.2 0.00 0.00 0.00 96 1034.8
20260503194335 13 284 3.2 3.2 0.00 0.00 0.00 96 1034.8
20260503194111 13 284 1.6 3.2 0.00 0.00 0.00 96 1034.6
20260503194108 13 284 1.6 3.2 0.00 0.00 0.00 96 1034.8
20260503192824 13 284 1.6 3.2 0.00 0.00 0.00 96 1034.7
20260503192318 13 284 1.6 4.8 0.00 0.00 0.00 96 1034.5
20260503192051 13 284 1.6 4.8 0.00 0.00 0.00 96 1034.5
20260503191304 13 284 1.6 4.8 0.00 0.00 0.00 96 1034.5
20260503191028 13 284 1.6 3.2 0.00 0.00 0.00 96 1034.4
20260503190255 13 284 0.0 3.2 0.00 0.00 0.00 96 1034.4
20260503185813 13 284 0.0 3.2 0.00 0.00 0.00 96 1034.2
20260503185805 13 284 1.6 3.2 0.00 0.00 0.00 96 1034.3
20260503184751 13 284 1.6 3.2 0.00 0.00 0.00 96 1034.2
20260503184252 13 284 1.6 3.2 0.00 0.00 0.00 96 1034.1
20260503183751 13 284 0.0 3.2 0.00 0.00 0.00 96 1034.2
20260503183249 13 284 1.6 3.2 0.00 0.00 0.00 95 1034.0
20260503182746 13 284 1.6 3.2 0.00 0.00 0.00 95 1034.0
20260503182248 13 284 0.0 3.2 0.00 0.00 0.00 95 1034.0
20260503181747 13 284 0.0 3.2 0.00 0.00 0.00 95 1033.9
20260503181242 13 284 1.6 4.8 0.00 0.00 0.00 95 1033.9
20260503180745 13 284 1.6 4.8 0.00 0.00 0.00 96 1033.9
20260503180239 13 284 1.6 3.2 0.00 0.00 0.00 95 1033.9
20260503175733 13 284 0.0 3.2 0.00 0.00 0.00 96 1033.9
20260503175234 13 284 1.6 3.2 0.00 0.00 0.00 96 1033.8
20260503175009 13 284 1.6 6.4 0.00 0.00 0.00 97 1033.8
20260503174503 12 284 1.6 6.4 0.00 0.00 0.00 97 1033.9
20260503174000 12 284 1.6 4.8 0.00 0.00 0.00 97 1033.8
20260503173225 12 284 1.6 4.8 0.00 0.00 0.00 97 1033.8
20260503172712 12 284 0.0 0.0 0.00 0.00 0.00 97 1033.7
20260503172208 12 284 0.0 0.0 0.00 0.00 0.00 97 1033.7
20260503171701 12 284 0.0 0.0 0.00 0.00 0.00 97 1033.7
20260503171202 12 284 0.0 0.0 0.00 0.00 0.00 97 1033.7
20260503170704 12 284 0.0 1.6 0.00 0.00 0.00 97 1033.7
20260503170159 12 284 0.0 1.6 0.00 0.00 0.00 97 1033.7
20260503160113 12 284 0.0 3.2 0.00 0.00 0.00 96 1033.8
20260503150536 12 284 1.6 6.4 0.00 0.00 0.00 96 1034.0
20260503131342 12 288 1.6 3.2 0.00 0.00 0.00 96 1034.7
20260503130826 12 288 1.6 3.2 0.00 0.00 0.00 96 1034.7
20260503130320 12 288 1.6 3.2 0.00 0.00 0.00 96 1034.7
20260503110642 12 288 1.6 4.8 0.00 0.00 0.00 96 1034.9
20260503110141 12 288 3.2 4.8 0.00 0.00 0.00 96 1034.8
20260503081421 12 288 1.6 3.2 0.00 0.00 0.00 96 1034.0
20260503081413 12 288 1.6 3.2 0.00 0.00 0.00 95 1034.0
20260503080645 12 288 0.0 3.2 0.00 0.00 0.00 96 1034.0
20260503080140 12 288 1.6 3.2 0.00 0.00 0.00 95 1034.0
20260503072848 12 288 1.6 3.2 0.00 0.00 0.00 95 1033.8
20260503072338 12 288 1.6 3.2 0.00 0.00 0.00 95 1033.8
20260503071835 12 288 0.0 1.6 0.00 0.00 0.00 95 1033.7
20260503071333 12 288 0.0 1.6 0.00 0.00 0.00 95 1033.6
20260503070833 12 288 0.0 1.6 0.00 0.00 0.00 95 1033.6
20260503070606 12 288 1.6 1.6 0.00 0.00 0.00 95 1033.6
20260503060219 13 37 1.6 3.2 0.00 0.00 0.00 94 1033.2
20260503054713 13 114 1.6 1.6 0.00 0.00 0.00 94 1033.2
20260503054213 14 114 0.0 1.6 0.00 0.00 0.00 93 1033.2
20260503053714 14 114 0.0 3.2 0.00 0.00 0.00 93 1033.3
20260503053208 14 114 1.6 3.2 0.00 0.00 0.00 92 1033.2
20260503052937 14 114 0.0 1.6 0.00 0.00 0.00 92 1033.1
20260503052154 15 114 0.0 3.2 0.00 0.00 0.00 92 1033.1
20260503052150 15 114 1.6 3.2 0.00 0.00 0.00 91 1033.1
20260503051421 15 114 0.0 3.2 0.00 0.00 0.00 91 1033.0
20260503050640 15 114 1.6 4.8 0.00 0.00 0.00 91 1033.1
20260503050138 15 114 1.6 4.8 0.00 0.00 0.00 90 1033.2
20260503045634 15 114 1.6 11.3 0.00 0.00 0.00 90 1033.1
20260503045132 15 111 1.6 11.3 0.00 0.00 0.00 90 1033.1
20260503044628 16 132 0.0 3.2 0.00 0.00 0.00 90 1033.2
20260503044120 16 132 0.0 3.2 0.00 0.00 0.00 89 1033.2
20260503043620 16 132 1.6 4.8 0.00 0.00 0.00 89 1033.2
20260503043114 16 113 1.6 4.8 0.00 0.00 0.00 88 1033.2
20260503042850 16 125 1.6 8.0 0.00 0.00 0.00 88 1033.2
20260503042347 16 115 3.2 8.0 0.00 0.00 0.00 87 1033.2
20260503041607 16 134 3.2 6.4 0.00 0.00 0.00 87 1033.3
20260503041340 16 130 3.2 8.0 0.00 0.00 0.00 87 1033.2
20260503040609 16 121 3.2 11.3 0.00 0.00 0.00 87 1033.3
20260503040327 16 122 4.8 11.3 0.00 0.00 0.00 86 1033.2
20260503035555 16 117 4.8 9.7 0.00 0.00 0.00 87 1033.3
20260503035049 16 113 1.6 9.7 0.00 0.00 0.00 86 1033.3
20260503034552 17 133 4.8 9.7 0.00 0.00 0.00 86 1033.3
20260503034545 17 94 3.2 9.7 0.00 0.00 0.00 87 1033.4
20260503033540 17 154 1.6 6.4 0.00 0.00 0.00 85 1033.2
20260503033037 17 103 4.8 6.4 0.00 0.00 0.00 86 1033.2
20260503032532 17 110 3.2 11.3 0.00 0.00 0.00 85 1033.3
20260503032032 17 126 6.4 14.5 0.00 0.00 0.00 86 1033.2
20260503031530 17 98 6.4 14.5 0.00 0.00 0.00 86 1033.1
20260503031030 17 152 4.8 11.3 0.00 0.00 0.00 86 1033.1
20260503030526 17 107 6.4 11.3 0.00 0.00 0.00 85 1033.1
20260503030021 17 93 6.4 11.3 0.00 0.00 0.00 85 1033.2
20260503025523 17 38 1.6 14.5 0.00 0.00 0.00 84 1033.2
20260503025022 17 104 4.8 14.5 0.00 0.00 0.00 86 1033.2
20260503024521 17 46 4.8 12.9 0.00 0.00 0.00 85 1033.2
20260503024017 17 109 4.8 14.5 0.00 0.00 0.00 85 1033.2
20260503023513 17 28 8.0 14.5 0.00 0.00 0.00 84 1033.2
20260503023008 17 27 3.2 9.7 0.00 0.00 0.00 84 1033.2
20260503022508 17 85 4.8 8.0 0.00 0.00 0.00 85 1033.1
20260503022005 17 85 3.2 12.9 0.00 0.00 0.00 85 1033.3
20260503021459 17 167 6.4 12.9 0.00 0.00 0.00 84 1033.4
20260503021229 17 63 3.2 16.1 0.00 0.00 0.00 84 1033.4
20260503020455 17 120 9.7 16.1 0.00 0.00 0.00 84 1033.3
20260503015956 17 126 6.4 12.9 0.00 0.00 0.00 84 1033.4
20260503015451 17 106 9.7 14.5 0.00 0.00 0.00 84 1033.4
20260503014950 17 66 8.0 14.5 0.00 0.00 0.00 85 1033.3
20260503014451 17 93 4.8 11.3 0.00 0.00 0.00 85 1033.3
20260503013954 17 130 8.0 11.3 0.00 0.00 0.00 84 1033.4
20260503013446 17 56 3.2 12.9 0.00 0.00 0.00 86 1033.6
20260503012940 17 121 6.4 17.7 0.00 0.00 0.00 85 1033.6
20260503012439 17 126 6.4 17.7 0.00 0.00 0.00 85 1033.7
20260503011934 17 119 9.7 12.9 0.00 0.00 0.00 85 1033.6
20260503011434 17 99 6.4 16.1 0.00 0.00 0.00 86 1033.6
20260503011208 17 147 11.3 16.1 0.00 0.00 0.00 84 1033.7
20260503010425 17 124 8.0 14.5 0.00 0.00 0.00 84 1033.8
20260503005926 17 136 6.4 14.5 0.00 0.00 0.00 86 1033.8
20260503005422 17 113 6.4 14.5 0.00 0.00 0.00 86 1034.0
20260503004917 17 88 3.2 14.5 0.00 0.00 0.00 86 1034.0
20260503004415 17 117 8.0 17.7 0.00 0.00 0.00 85 1034.0
20260503003911 17 135 6.4 17.7 0.00 0.00 0.00 85 1034.1
20260503003426 17 130 4.8 14.5 0.00 0.00 0.00 85 1034.1
20260503003414 17 126 3.2 12.9 0.00 0.00 0.00 85 1034.1
20260503002639 17 127 9.7 14.5 0.00 0.00 0.00 84 1034.3
20260503001900 17 49 8.0 14.5 0.00 0.00 0.00 84 1034.3
20260503001400 17 117 4.8 14.5 0.00 0.00 0.00 85 1034.4
20260503000855 17 92 8.0 14.5 0.00 0.00 0.00 85 1034.5
20260503000355 17 46 3.2 17.7 0.00 0.00 0.00 85 1034.6
20260502235855 17 107 6.4 17.7 0.00 0.00 0.00 84 1034.6
20260502235357 17 102 6.4 12.9 0.00 0.00 0.00 85 1034.6
20260502234852 17 153 8.0 12.9 0.00 0.00 0.00 84 1034.7
20260502234351 17 36 4.8 14.5 0.00 0.00 0.00 85 1034.8
20260502233851 17 106 3.2 14.5 0.00 0.00 0.00 84 1034.9
20260502233351 17 92 6.4 12.9 0.00 0.00 0.00 84 1034.9
20260502232848 17 26 6.4 12.9 0.00 0.00 0.00 85 1034.9
20260502232346 17 107 4.8 12.9 0.00 0.00 0.00 85 1034.9
20260502231842 17 55 6.4 17.7 0.00 0.00 0.00 85 1034.9
20260502231338 17 148 9.7 17.7 0.00 0.00 0.00 85 1035.0
20260502230839 17 117 8.0 12.9 0.00 0.00 0.00 85 1034.9
20260502230334 17 81 6.4 16.1 0.00 0.00 0.00 85 1035.0
20260502225837 16 107 8.0 16.1 0.00 0.00 0.00 86 1035.1
20260502225330 16 124 8.0 16.1 0.00 0.00 0.00 86 1035.1
20260502224826 16 88 6.4 14.5 0.00 0.00 0.00 86 1035.0
20260502224601 16 107 6.4 12.9 0.00 0.00 0.00 86 1035.1
20260502223823 16 123 6.4 12.9 0.00 0.00 0.00 86 1035.2
20260502223320 16 119 6.4 12.9 0.00 0.00 0.00 87 1035.3
20260502222818 16 122 6.4 12.9 0.00 0.00 0.00 88 1035.2
20260502222314 16 161 4.8 12.9 0.00 0.00 0.00 89 1035.3
20260502221814 16 167 4.8 16.1 0.00 0.00 0.00 88 1035.3
20260502221543 16 100 9.7 16.1 0.00 0.00 0.00 89 1035.3
20260502220812 16 104 9.7 14.5 0.00 0.00 0.00 90 1035.2
20260502220308 15 107 9.7 14.5 0.00 0.00 0.00 91 1035.3
20260502215807 15 117 9.7 14.5 0.00 0.00 0.00 92 1035.2
20260502215304 15 100 6.4 11.3 0.00 0.00 0.00 95 1035.2
20260502214802 15 116 4.8 8.0 0.00 0.00 0.00 95 1035.2
20260502214257 15 153 4.8 8.0 0.00 0.00 0.00 95 1035.1
20260502213756 14 149 3.2 9.7 0.00 0.00 0.00 95 1035.2
20260502213257 14 127 4.8 9.7 0.00 0.00 0.00 96 1035.2
20260502212743 14 167 4.8 8.0 0.00 0.00 0.00 96 1035.2
20260502212241 13 140 3.2 6.4 0.00 0.00 0.00 97 1035.3
20260502211740 13 140 3.2 8.0 0.00 0.00 0.00 97 1035.2
20260502211234 13 143 3.2 8.0 0.00 0.00 0.00 98 1035.2
20260502211013 13 196 1.6 4.8 0.00 0.00 0.00 98 1035.1
20260502210502 13 196 3.2 4.8 0.00 0.00 0.00 98 1035.2
20260502205728 13 196 1.6 4.8 0.00 0.00 0.00 98 1035.1
20260502205222 13 133 1.6 3.2 0.00 0.00 0.00 99 1035.2